Location: Katowice
(50.2611°N, 19.0242°E)
Time: 11:37:05
(UTC+02:00)

Explorer 7 - Pass Details

Date: 25 August 2019
Orbit: 485 x 680 km, 50.3° (Epoch: 20 October)

Event Time Altitude Azimuth Distance (km) Brightness Sun altitude
Rises 13:24:01 0° 281° (W) 2,946 10.6 49.7°
Reaches altitude 10° 13:26:25 10° 280° (W) 2,007 9.9 49.6°
Maximum altitude 13:31:01 73° 196° (SSW) 631 8.7 49.4°
Drops below altitude 10° 13:35:18 10° 112° (ESE) 1,878 9.7 49.2°
Sets 13:37:29 0° 111° (ESE) 2,740 10.4 49.1°
